Location: Unspecified
(0.0000°N, 0.0000°E)
Time: 10:20:12
(UTC+00:00)

KAITUO 1B - Pass Details

Date: 26 March 2019
Orbit: 495 x 518 km, 97.4° (Epoch: 15 July)

Event Time Altitude Azimuth Distance (km) Brightness Sun altitude
Rises 18:54:17 0° 207° (SSW) 2,627 ? -12.1°
Maximum altitude 18:58:48 10° 258° (WSW) 1,726 ? -13.3°
Drops below altitude 10° 18:59:01 10° 261° (W) 1,727 ? -13.3°
Sets 19:03:18 0° 310° (NW) 2,599 ? -14.4°
